Flag for Thailand Weather past 2 weeks in Khon Kaen, Thailand

Now
82 °F

Clear.


Feels Like: 91 °F
Forecast: 85 / 101 °F
Wind: 2 mph from North

Location: Khon Kaen Airport


UV Index: 10 (Very high)

Visibility: 10 mi


Pressure: 29.80 "Hg

Humidity: 84%

Dew point: 77 °F

Location of Khon KaenLocation

Historic Weather in Khon Kaen

°F

Khon Kaen temperature yesterday

Maximum temperature yesterday: 93 °F (at 3:00 PM)
Minimum temperature yesterday: 73 °F (at 2:00 AM)
Average temperature yesterday: 84 °F

Past Weeks' High & Low Weather Summary

 TemperatureHumidityPressure
High100 °F (Apr 9, 11:00 PM)100% (Apr 3, 7:00 PM)29.98 "Hg (Apr 3, 7:00 PM)
Low70 °F (Apr 5, 5:00 AM)39% (Apr 9, 4:00 PM)29.68 "Hg (Apr 12, 4:00 PM)
Average84 °F76%29.82 "Hg
* Reported Apr 2 10:00 PM — Apr 17 10:00 PM, Khon Kaen, Weather by CustomWeather, © 2014

Note: Actual official high and low records may vary slightly from our data, if they occured in-between our weather recording intervals... More about our weather records

Advertising

Historic Weather Conditions — Data for Previous 24 hours

 ConditionsComfort  
Time TempWeatherWind HumidityBarometerVisibility
10:00 PM
Apr 17
82 °FClear.3 mph84%29.80 "Hg10 mi
9:00 PM82 °FClear.2 mph84%29.77 "Hg10 mi
8:00 PM84 °FPassing clouds.3 mph84%29.77 "HgN/A
7:00 PM86 °FPassing clouds.1 mph79%29.74 "HgN/A
6:00 PM88 °FPartly sunny.3 mph70%29.71 "HgN/A
5:00 PM88 °FPartly sunny.3 mph66%29.71 "HgN/A
4:00 PM91 °FPartly sunny.6 mph63%29.71 "HgN/A
3:00 PM97 °FPartly sunny.2 mph53%29.71 "HgN/A
2:00 PM95 °FScattered clouds.3 mph56%29.74 "HgN/A
1:00 PM93 °FScattered clouds.5 mph59%29.77 "HgN/A
12:00 PM93 °FScattered clouds.5 mph56%29.83 "HgN/A
11:00 AM91 °FPassing clouds.2 mph59%29.83 "Hg6 mi
10:00 AM90 °FClear.2 mph67%29.83 "Hg5 mi
9:00 AM86 °FClear.3 mph75%29.83 "Hg5 mi
8:00 AM82 °FClear.5 mph84%29.83 "Hg4 mi
7:00 AM79 °FClear.2 mph94%29.80 "Hg4 mi
6:00 AM77 °FScattered clouds.2 mph100%29.77 "Hg4 mi
5:00 AM77 °FClear.2 mph100%29.77 "Hg5 mi
4:00 AM77 °FClear.2 mph94%29.74 "Hg6 mi
3:00 AM79 °FClear.2 mph84%29.74 "Hg10 mi
2:00 AM79 °FClear.2 mph84%29.74 "Hg10 mi
Weather by CustomWeather, © 2014

See weather overview